www.pogodaiklimat.ru

Погода и климат >> Архив погоды >> Кувейт >> Аль-Вафра


ПОГОДА в Аль-Вафре

  • Прогноз погоды в Аль-Вафре
  • Монитор погоды в Аль-Вафре

АРХИВ ПОГОДЫ в Аль-Вафре

Время (UTC), дата Ветер
(напр.,м/с)
 
Видим.   Явления Облачность Т
(С)
Тd
(С)
f
(%)
Тe
(С)
Тes
(С)
Комфортность P
(гПа)
Po
(гПа)
Тmin
(С)
Tmax
(С)
R
(мм)
R24
(мм)
S
(см)
09 13.09 С 1-5
{5}
19 км н/о +42.2 +11.3 16 +41 +41 опасность
перегрева
1006.4 994.8 367
12 13.09 С 2-5
{6}
17 км н/о +41.5 +9.0 14 +39 +39 очень
жарко
1004.4 992.8 219
15 13.09 ЮВ 1-2
{9}
19 км н/о +33.1 +12.6 29 +34 +34 очень
жарко
1005.0 993.1 5
18 13.09 Ю 1-2
{9}
11 км н/о +29.3 +12.3 35 +30 +30 жарко 1006.3 994.2
21 13.09 З 1-2
{1}
10 км н/о +26.2 +13.6 46 +28 +28 жарко 1006.0 993.8 +23.9 +43.5
00 14.09 З 2-2
{3}
20 км н/о +25.9 +10.7 38 +27 +27 жарко 1005.3 993.1
03 14.09 З 2-3
{3}
19 км н/о +26.3 +8.6 33 +27 +27 жарко 1006.7 994.5 3
06 14.09 СЗ 2-3
{5}
19 км н/о +39.3 +10.0 17 +38 +38 очень
жарко
1007.6 995.9 259
09 14.09 СВ 3-5
{7}
19 км н/о +41.5 +9.3 15 +40 +40 очень
жарко
1006.2 994.6 368
12 14.09 СЗ 2-4
{7}
19 км н/о +43.3 +10.2 14 +42 +42 опасность
перегрева
1004.7 993.2 233
15 14.09 В 1-1
{8}
14 км н/о +33.3 +12.5 28 +34 +34 очень
жарко
1004.9 993.0 5
18 14.09 ЮЗ 1-1
{8}
13 км н/о +29.8 +10.6 30 +30 +30 жарко 1006.0 993.9
21 14.09 ЮЗ 1-1
{1}
10 км дымка н/о +26.5 +11.1 38 +27 +27 жарко 1006.1 993.9 +24.6 +44.3
00 15.09 З 2-2
{2}
19 км н/о +25.5 +9.9 37 +26 +26 жарко 1005.4 993.2
03 15.09 З 2-5
{5}
19 км н/о +27.1 +7.4 29 +27 +27 жарко 1006.3 994.1 3
06 15.09 З 3-5
{6}
19 км н/о +38.5 +7.4 15 +36 +36 очень
жарко
1007.6 995.8 258
09 15.09 В 1-3
{4}
20 км н/о +42.7 +8.0 13 +41 +41 опасность
перегрева
1006.2 994.6 364
12 15.09 СЗ 2-4
{6}
20 км н/о +43.9 +9.9 13 +42 +42 опасность
перегрева
1004.5 993.0 231
15 15.09 В 1-3
{6}
19 км н/о +34.9 +12.9 27 +35 +35 очень
жарко
1005.4 993.5 5
18 15.09 Ю 1-2
{6}
18 км н/о +31.2 +16.3 41 +34 +34 душно 1007.1 995.1
21 15.09 ЮЗ 1-2
{4}
16 км н/о +28.3 +17.6 52 +32 +32 душно 1006.5 994.4 +24.5 +46.0
00 16.09 ЮЗ 2-3
{4}
20 км н/о +28.4 +11.8 36 +29 +29 жарко 1005.9 993.8
03 16.09 З 2-4
{6}
20 км н/о +28.7 +9.1 29 +28 +28 жарко 1007.2 995.1 2
06 16.09 З 3-4
{6}
20 км н/о +40.2 +8.0 14 +38 +38 очень
жарко
1008.2 996.5 254
09 16.09 С 1-3
{4}
19 км н/о +45.0 +9.2 12 +43 +43 опасность
перегрева
1006.3 994.8 359
12 16.09 В 3-7
{10}
19 км н/о +41.1 +16.9 25 +44 +44 опасность
перегрева
1004.7 993.1 225
15 16.09 В 1-2
{8}
13 км н/о +32.8 +18.0 41 +37 +37 очень
душно
1005.4 993.5 3
18 16.09 ЮЗ 1-1
{8}
6000 м дымка н/о +26.9 +18.0 58 +31 +31 душно 1006.7 994.5
21 16.09 З 2-2
{2}
11 км н/о +23.0 +15.6 63 +27 +27 душно 1006.2 993.9 +22.9 +45.6
00 17.09 З 2-2
{3}
14 км н/о +22.8 +14.3 59 +26 +26 жарко 1005.7 993.4
03 17.09 З 2-3
{3}
13 км н/о +23.6 +12.4 49 +25 +25 комфорт 1006.8 994.5 1
06 17.09 СЗ 1-2
{3}
14 км н/о +38.7 +12.9 22 +39 +39 душно 1007.0 995.3 258
09 17.09 В 2-4
{5}
19 км н/о +43.1 +7.9 12 +41 +41 опасность
перегрева
1005.3 993.7 371
12 17.09 В 3-7
{7}
19 км н/о +43.3 +8.7 13 +41 +41 опасность
перегрева
1003.3 991.8 211
15 17.09 СВ 2-2
{6}
13 км н/о +33.1 +10.5 25 +33 +33 жарко 1003.7 991.8 3
18 17.09 ЮЗ 1-2
{6}
11 км н/о +28.3 +10.5 33 +29 +29 жарко 1005.2 993.1
21 17.09 З 2-2
{3}
19 км н/о +26.5 +9.7 35 +27 +27 жарко 1004.9 992.7 +22.3 +45.0
00 18.09 З 2-3
{5}
20 км н/о +27.6 +8.4 30 +27 +27 жарко 1004.8 992.7
03 18.09 З 1-2
{3}
17 км н/о +26.2 +4.3 24 +25 +25 комфорт 1006.2 994.0 1
06 18.09 СЗ 2-3
{4}
14 км н/о +41.1 +13.0 19 +41 +41 опасность
перегрева
1007.0 995.4 250
09 18.09 С 4-8
{8}
18 км н/о +45.2 +10.0 13 +44 +44 опасность
перегрева
1005.5 994.0 362
12 18.09 СВ 3-7
{9}
19 км н/о +45.6 +7.2 10 +43 +43 опасность
перегрева
1004.0 992.5 207
15 18.09 СВ 1-1
{8}
14 км н/о +34.6 +11.2 24 +34 +34 очень
жарко
1005.1 993.2 2
18 18.09 З 2-2
{8}
10 км н/о +30.4 +10.1 28 +30 +30 жарко 1006.9 994.8
21 18.09 С 3-7
{7}
14 км н/о +34.7 +7.3 18 +33 +33 жарко 1006.8 994.9 +25.8 +46.6
00 19.09 СЗ 5-11
{11}
19 км н/о +33.0 +4.7 17 +31 +31 жарко 1006.7 994.7
03 19.09 СЗ 5-9
{12}
17 км н/о +31.5 +2.0 15 +29 +29 жарко 1007.8 995.8 1
06 19.09 С 6-13
{13}
11 км н/о +37.3 +4.5 13 +34 +34 очень
жарко
1009.2 997.4 258
09 19.09 С 5-11
{14}
12 км н/о +44.0 +6.3 10 +41 +41 опасность
перегрева
1007.6 996.0 365
12 19.09 С 4-10
{14}
19 км н/о +44.1 +3.8 9 +41 +41 опасность
перегрева
1006.0 994.5 213
15 19.09 СВ 2-4
{9}
11 км н/о +38.1 +3.2 12 +35 +35 очень
жарко
1006.8 995.0 4
18 19.09 С 3-5
{9}
19 км н/о +35.9 +2.6 12 +33 +33 жарко 1008.2 996.3
21 19.09 С 3-6
{8}
18 км н/о +33.4 +4.3 16 +31 +31 жарко 1007.6 995.7 +31.4 +44.9
00 20.09 СЗ 2-4
{9}
18 км н/о +29.7 +5.0 21 +28 +28 жарко 1007.3 995.2
03 20.09 З 2-3
{3}
15 км дымка н/о +26.8 +5.5 26 +26 +26 жарко 1007.6 995.4 2
06 20.09 СЗ 4-8
{8}
18 км н/о +38.1 +4.2 12 +35 +35 очень
жарко
1007.8 996.0 275

 

Местоположение метеостанции Аль-Вафра (Кувейт): широта 28.56 долгота 48.06 высота над уровнем моря 107 м.

В архиве по умолчанию представлена погода в Аль-Вафре за последнюю неделю. Архивные данные за месяц целиком и за предыдущие месяцы, начиная с января 2011 года, Вы можете получить, выбрав интересующий диапазон дат из раскрывающегося списка и нажав кнопку "Ввод!".


*Определитесь, кто Вы:
робот инопланетянин человек

Внимание! Время в таблицах - всемирное. Для получения местного времени необходимо прибавить поправку, которая равна 3 ч.

Смотрите также архив погоды в соседних городах и на ближайших метеорологических станциях:

Погода в Порту Juluiah (Кувейт) (41 км)
Погода в Умм-Аль-Марадим (Кувейт) (59 км)
Погода в Нувасибе (Кувейт) (68 км)
Погода в Эль-Кувейте (Кувейт) (74 км)
Погода в Минагише (Кувейт) (77 км)
Погода на Экспериментальной ферме (Кувейт) (82 км)
Погода в Сулайбии (Кувейт) (86 км)
Погода в Кувейт Сити (Кувейт) (86 км)
Погода в Аль-Шуаиба (Кувейт) (88 км)
Погода в Эль-Джахра (Кувейт) (93 км)

Пояснения к столбцам:

Ветер - указаны скорость ветра в м/с - средняя за 10 мин, порывы в срок и между сроками (в фигурных скобках) и направление, откуда дует ветер: С - северный, СВ - северо-восточный, В - восточный, ЮВ - юго-восточный, Ю - южный, ЮЗ - юго-западный, З - западный, СЗ - северо-западный.
Видимость - горизонтальная дальность видимости в метрах или километрах. При видимости от 1 до 10 км при отсутствии осадков обычно наблюдается дымка, при ухудшении видимости до 1 км и менее - туман. В сухую погоду видимость может ухудшаться дымом, пылью или мглою.
Явления - указаны атмосферные явления, наблюдавшиеся в срок или в последний час перед сроком; фигурными скобками обозначены явления, наблюдавшиеся между сроками (за 1-3 часа до срока); квадратными скобками обозначены град или гололедные отложения с указанием их диаметра в мм.
Облачность - указаны через наклонную черту общая и нижняя облачность в баллах и высота нижней границы облаков в метрах; квадратными скобками обозначены формы облаков: Ci - перистые, Cs - перисто-слоистые, Cc - перисто-кучевые, Ac - высококучевые, As - высокослоистые, Sc - слоисто-кучевые, Ns - слоисто-дождевые, Cu - кучевые, Cb - кучево-дождевые. Подробнее классификацию облаков см. в Атласе облаков (PDF).
T - Температура воздуха - температура, измеренная на высоте 2 м над землей.
Td - Температура точки росы - температура, при понижении до которой содержащийся в воздухе водяной пар достигнет насыщения.
f - Относительная влажность воздуха - влажноcть воздуха, измеренная на высоте 2 м над землей.
Te - Эффективная температура - температура, которую ощущает одетый по сезону человек в тени. Характеристика душности погоды. При расчете учитывается влияние влажности воздуха и скорости ветра на теплоощущения человека.
Tes - Эффективная температура на солнце - температура, которую ощущает человек, с поправкой на солнечный нагрев. Характеристика знойности погоды. Зависит от высоты солнца над горизонтом, облачности и скорости ветра. Ночью, в пасмурную погоду, а также при ветре 12 м/с и более поправка равна нулю.
P - Атмосферное давление - приведенное к уровню моря атмосферное давление.
Po - Атмосферное давление - измеренное на уровне метеостанции атмосферное давление.
Tmin - Минимальная температура - минимум температуры воздуха на высоте 2 м над землей.
Tmax - Максимальная температура - максимум температуры воздуха на высоте 2 м над землей.
R - Количество осадков - Количество выпавших осадков за период времени, мм. При наведении курсора мыши на число - период времени, за который выпало указанное количество осадков.
R24 - Количество осадков - Количество выпавших осадков за 24 часа, мм.
S - Снежный покров - Высота снежного покрова, см. При наведении курсора мыши на число - состояние снежного покрова и степень покрытия местности в баллах.